Voltar ao catálogo

STARLINK-30708

AtivoComunicaçõesVLEO
NORAD 57944·PAYLOAD·🇺🇸 United States

Lançado Sep 25, 2023 de Vandenberg Space Force Base

Loading…

Próximas Passagens (próximas 24 horas)

TLE

AtualizadoSource: CelesTrak SupGP

Época: Sep 14, 2026, 21:10 UTC

1 57944C 23148K   26257.88243056  .00035170  00000+0  10390-2 0  2572
2 57944  53.1579 221.9747 0001325  95.1795  74.3182 15.34376666    13

Acompanhe STARLINK-30708 em tempo real com AllMySat

Download on the App Store